Location: Hains Lake
(37.8540°N, 99.8578°W)
Time: 03:59:29
(UTC+00:00)

Vanguard 2 Rocket - Pass Details

Date: 22 April 2021
Orbit: 553 x 3326 km, 32.9° (Epoch: 07 May)

Event Time Altitude Azimuth Distance (km) Brightness Sun altitude
Rises 02:39:07 0° 283° (WNW) 7,176 13.0 -15.0°
Reaches altitude 10° 02:45:29 10° 273° (W) 5,885 12.0 -16.1°
Maximum altitude 02:57:51 25° 227° (SW) 3,902 10.2 -18.2°
Drops below altitude 10° 03:06:45 10° 178° (S) 4,113 9.9 -19.6°
Enters shadow 03:07:52 - 173° (S) 4,273 9.9 -19.8°
Sets 03:10:16 0° 164° (SSE) 4,700 - -20.2°
